TimeCDT,TemperatureF,Dew PointF,Humidity,Sea Level PressureIn,VisibilityMPH,Wind Direction,Wind SpeedMPH,Gust SpeedMPH,PrecipitationIn,Events,Conditions,WindDirDegrees,DateUTC
12:15 AM,73.4,61.7,67,30.06,10.0,South,4.6,-,N/A,,Scattered Clouds,180,2013-06-21 05:15:00
12:35 AM,73.8,61.7,66,30.05,10.0,SSE,5.8,-,N/A,,Scattered Clouds,160,2013-06-21 05:35:00
12:55 AM,73.4,61.7,67,30.04,10.0,SSE,6.9,-,N/A,,Clear,160,2013-06-21 05:55:00
1:15 AM,73.6,61.7,66,30.05,10.0,SSE,6.9,-,N/A,,Clear,160,2013-06-21 06:15:00
1:35 AM,72.9,61.7,68,30.05,10.0,South,5.8,-,N/A,,Clear,170,2013-06-21 06:35:00
1:55 AM,72.9,61.9,68,30.05,10.0,South,5.8,-,N/A,Thunderstorm,Mostly Cloudy,180,2013-06-21 06:55:00
2:15 AM,73.4,61.9,67,30.04,10.0,South,5.8,-,N/A,,Mostly Cloudy,170,2013-06-21 07:15:00
2:35 AM,74.3,62.1,65,30.04,10.0,South,6.9,-,N/A,,Overcast,170,2013-06-21 07:35:00
2:55 AM,74.8,62.2,65,30.04,10.0,South,6.9,-,N/A,,Overcast,170,2013-06-21 07:55:00
3:15 AM,74.5,62.8,67,30.04,10.0,SSE,8.1,-,N/A,,Mostly Cloudy,160,2013-06-21 08:15:00
3:35 AM,73.6,63.1,70,30.04,10.0,South,6.9,-,N/A,,Scattered Clouds,170,2013-06-21 08:35:00
3:55 AM,73.0,63.1,71,30.03,10.0,South,12.7,-,N/A,,Scattered Clouds,170,2013-06-21 08:55:00
4:15 AM,73.4,63.0,70,30.02,10.0,South,10.4,-,N/A,,Scattered Clouds,170,2013-06-21 09:15:00
4:35 AM,74.3,61.9,65,30.03,10.0,South,12.7,-,N/A,,Scattered Clouds,180,2013-06-21 09:35:00
4:55 AM,72.9,62.4,70,30.02,10.0,SSE,9.2,-,N/A,,Clear,150,2013-06-21 09:55:00
5:15 AM,71.6,62.6,73,30.03,10.0,SSE,8.1,-,N/A,,Scattered Clouds,150,2013-06-21 10:15:00
5:35 AM,71.8,62.6,73,30.02,10.0,SSE,9.2,-,N/A,,Scattered Clouds,160,2013-06-21 10:35:00
5:55 AM,73.4,62.8,69,30.01,10.0,SSE,12.7,-,N/A,,Clear,160,2013-06-21 10:55:00
6:15 AM,74.3,63.1,68,30.01,10.0,SSE,12.7,18.4,N/A,,Clear,160,2013-06-21 11:15:00
6:35 AM,74.8,63.7,68,30.02,10.0,South,11.5,-,N/A,,Clear,180,2013-06-21 11:35:00
6:55 AM,74.7,64.4,70,30.01,10.0,South,11.5,17.3,N/A,,Clear,170,2013-06-21 11:55:00
7:15 AM,75.2,64.8,70,30.01,10.0,South,10.4,-,N/A,,Clear,170,2013-06-21 12:15:00
7:35 AM,76.1,64.9,68,29.99,10.0,South,15.0,19.6,N/A,,Clear,170,2013-06-21 12:35:00
7:55 AM,77.2,65.3,67,30.00,10.0,South,13.8,19.6,N/A,,Clear,180,2013-06-21 12:55:00
8:15 AM,77.0,65.7,68,29.99,10.0,South,13.8,18.4,N/A,,Clear,170,2013-06-21 13:15:00
8:35 AM,77.0,66.2,69,30.02,10.0,South,10.4,-,N/A,,Scattered Clouds,180,2013-06-21 13:35:00
8:55 AM,77.4,66.7,70,30.02,10.0,South,9.2,-,N/A,,Scattered Clouds,170,2013-06-21 13:55:00
9:15 AM,78.4,67.1,68,30.05,10.0,Calm,Calm,-,N/A,,Clear,0,2013-06-21 14:15:00
9:35 AM,78.3,68.0,71,30.08,10.0,West,4.6,-,N/A,,Mostly Cloudy,280,2013-06-21 14:35:00
9:55 AM,77.7,66.2,68,30.10,10.0,NW,16.1,20.7,N/A,Thunderstorm,Thunderstorm,320,2013-06-21 14:55:00
10:15 AM,75.4,60.3,59,30.11,10.0,North,15.0,23.0,N/A,Thunderstorm,Overcast,350,2013-06-21 15:15:00
10:35 AM,69.1,62.2,79,30.11,4.0,North,15.0,18.4,0.06,Rain-Thunderstorm,Heavy Thunderstorms and Rain,360,2013-06-21 15:35:00
10:55 AM,68.5,63.0,82,30.11,10.0,North,5.8,-,0.06,Thunderstorm,Overcast,10,2013-06-21 15:55:00
11:15 AM,68.9,63.3,82,30.12,10.0,Calm,Calm,-,N/A,Thunderstorm,Overcast,0,2013-06-21 16:15:00
11:35 AM,68.7,64.4,86,30.14,10.0,West,5.8,-,N/A,Thunderstorm,Overcast,280,2013-06-21 16:35:00
11:55 AM,68.4,64.2,87,30.14,4.0,Calm,Calm,-,0.07,Rain-Thunderstorm,Rain,0,2013-06-21 16:55:00
12:15 PM,67.5,64.6,90,30.13,10.0,NNE,5.8,-,N/A,Rain-Thunderstorm,Light Thunderstorms and Rain,30,2013-06-21 17:15:00
12:35 PM,68.0,64.6,89,30.15,7.0,Calm,Calm,-,0.02,Rain-Thunderstorm,Heavy Thunderstorms and Rain,0,2013-06-21 17:35:00
12:55 PM,67.1,64.8,92,30.13,10.0,South,10.4,-,0.06,Rain-Thunderstorm,Light Thunderstorms and Rain,180,2013-06-21 17:55:00
1:15 PM,67.1,64.4,91,30.03,10.0,East,20.7,25.3,0.01,Rain-Thunderstorm,Light Thunderstorms and Rain,100,2013-06-21 18:15:00
1:35 PM,67.5,64.0,89,29.99,10.0,ESE,18.4,26.5,0.01,,Light Drizzle,120,2013-06-21 18:35:00
1:55 PM,68.4,64.2,87,29.97,10.0,SE,15.0,21.9,0.01,,Clear,140,2013-06-21 18:55:00
2:15 PM,69.6,64.6,84,29.96,10.0,South,11.5,-,N/A,,Clear,180,2013-06-21 19:15:00
2:35 PM,70.7,65.3,83,29.95,10.0,South,15.0,-,N/A,,Clear,170,2013-06-21 19:35:00
2:55 PM,71.6,65.5,81,29.96,10.0,South,15.0,19.6,N/A,,Clear,180,2013-06-21 19:55:00
3:15 PM,72.5,65.8,80,29.95,10.0,South,11.5,21.9,N/A,,Clear,170,2013-06-21 20:15:00
3:35 PM,73.6,66.0,77,29.96,10.0,SSE,15.0,19.6,N/A,,Clear,160,2013-06-21 20:35:00
3:55 PM,74.7,65.7,73,29.96,10.0,SSE,17.3,26.5,N/A,,Clear,160,2013-06-21 20:55:00
4:15 PM,74.8,65.7,73,29.97,10.0,South,13.8,18.4,N/A,,Clear,170,2013-06-21 21:15:00
4:35 PM,74.7,65.7,73,29.98,10.0,SSE,13.8,18.4,N/A,,Clear,160,2013-06-21 21:35:00
4:55 PM,74.7,65.3,73,29.99,10.0,SSE,12.7,-,N/A,,Clear,160,2013-06-21 21:55:00
5:15 PM,74.7,64.4,70,29.99,7.0,SSE,12.7,18.4,N/A,,Clear,150,2013-06-21 22:15:00
5:35 PM,74.8,64.2,69,29.98,10.0,SSE,11.5,16.1,N/A,,Clear,160,2013-06-21 22:35:00
5:55 PM,75.2,64.6,69,29.96,10.0,SSE,6.9,-,N/A,,Clear,160,2013-06-21 22:55:00
6:15 PM,75.2,64.6,69,29.95,10.0,SSE,6.9,-,N/A,,Clear,150,2013-06-21 23:15:00
6:35 PM,75.2,64.9,70,29.95,10.0,SSE,6.9,-,N/A,,Clear,150,2013-06-21 23:35:00
6:55 PM,75.2,65.5,72,29.95,10.0,SSE,6.9,-,N/A,,Clear,150,2013-06-21 23:55:00
7:15 PM,74.7,65.5,73,29.95,10.0,SSE,5.8,-,N/A,,Clear,150,2013-06-22 00:15:00
7:35 PM,74.7,66.0,74,29.96,10.0,SE,6.9,-,N/A,,Clear,130,2013-06-22 00:35:00
7:55 PM,74.3,66.4,76,29.97,10.0,SE,5.8,-,N/A,,Clear,140,2013-06-22 00:55:00
8:15 PM,74.3,67.1,78,29.99,10.0,Calm,Calm,-,N/A,,Clear,0,2013-06-22 01:15:00
8:35 PM,73.0,66.7,81,29.99,10.0,ESE,3.5,-,N/A,,Clear,120,2013-06-22 01:35:00
8:55 PM,72.5,66.9,83,30.01,10.0,Calm,Calm,-,N/A,,Clear,0,2013-06-22 01:55:00
9:15 PM,71.6,67.5,87,30.01,10.0,ENE,4.6,-,N/A,,Scattered Clouds,70,2013-06-22 02:15:00
9:35 PM,72.1,67.8,86,30.02,10.0,East,5.8,-,N/A,,Overcast,80,2013-06-22 02:35:00
9:55 PM,72.5,67.1,83,30.03,10.0,ENE,5.8,-,N/A,,Overcast,70,2013-06-22 02:55:00
10:15 PM,72.7,67.1,83,30.01,10.0,ESE,6.9,-,N/A,,Overcast,110,2013-06-22 03:15:00
10:35 PM,73.0,67.3,82,30.01,7.0,ESE,4.6,-,0.01,Rain,Rain,120,2013-06-22 03:35:00
10:55 PM,70.7,68.0,91,30.00,10.0,SE,8.1,-,0.09,Rain,Light Rain,140,2013-06-22 03:55:00
11:15 PM,71.8,67.5,86,30.01,10.0,SSE,4.6,-,N/A,,Clear,160,2013-06-22 04:15:00
11:35 PM,72.1,68.0,87,30.00,10.0,SSE,3.5,-,N/A,,Clear,150,2013-06-22 04:35:00
11:55 PM,71.6,68.2,89,29.99,10.0,ESE,4.6,-,N/A,,Mostly Cloudy,120,2013-06-22 04:55:00